Location: Eldred Sherwood Park Lake Dam
(42.9416°N, 93.5655°W)
Time: 09:31:28
(UTC+00:00)

Tiros 1 - Pass Details

Date: 11 November 2024
Orbit: 622 x 653 km, 48.4° (Epoch: 06 December)

Event Time Altitude Azimuth Distance (km) Brightness Sun altitude
Rises 00:54:34 0° 248° (WSW) 2,948 11.8 -22.0°
Reaches altitude 10° 00:56:54 10° 249° (WSW) 2,045 10.7 -22.4°
Maximum altitude 01:01:37 78° 336° (NNW) 670 7.1 -23.3°
Enters shadow 01:02:10 67° 35° (NE) 707 7.1 -23.4°
